Temp
13 13 14 14 14 15 15 15 16 16 17 17 17 17 18 18 19 19 19 19 19 20 20 21 22 22 23 21 21 20 13 14 18 18 19 19 20 21 21 20 20 20 20 20 17
13 13 13 14 14 15 15 15 15 17 17 17 17 18 18 19 19 20 20 19 20 20 21 21 23 23 22 22 21 16 12 17 18 18 18 19 20 21 20 19 19 20 21 19 18
12 13 14 14 15 15 16 16 17 17 17 17 17 18 18 19 20 19 19 20 20 21 21 21 22 22 22 22 20 18 16 18 19 19 19 19 20 20 19 18 19 20 20 19 18
13 13 14 14 15 15 15 16 16 17 17 17 18 18 18 19 18 19 20 20 20 21 21 21 22 21 18 18 20 18 19 19 20 20 20 19 20 20 20 21 21 21 20 19 19
13 14 14 14 15 15 16 16 16 17 17 18 18 18 18 19 19 19 20 20 20 21 21 21 21 20 18 20 20 19 20 20 21 21 21 20 20 20 20 21 21 20 19 19 19
13 14 14 15 15 16 16 16 17 17 18 18 18 18 18 18 19 19 20 20 20 21 21 21 21 21 20 20 19 20 20 20 21 21 20 19 19 19 21 21 21 20 19 19 19
14 15 15 15 16 16 16 17 17 18 18 18 18 18 19 19 19 19 20 20 20 20 20 20 21 21 20 19 21 20 19 17 19 20 19 20 18 17 21 21 20 20 19 19 19
15 15 15 16 16 16 16 17 18 18 18 18 18 18 19 19 19 19 20 20 20 20 20 20 21 21 20 20 18 17 15 15 17 17 19 19 16 18 20 20 20 20 19 19 19
15 15 16 16 16 16 17 17 18 18 18 18 18 18 19 19 19 19 20 20 20 21 21 21 21 20 20 15 14 13 15 16 17 17 17 18 16 18 21 19 20 20 19 20 20
15 16 16 16 16 16 17 17 18 18 18 19 19 19 19 19 19 19 20 20 20 21 21 21 20 14 13 13 14 16 16 16 17 17 14 15 14 14 18 19 19 18 18 19 19
15 16 16 16 16 16 17 17 18 18 19 18 19 19 19 19 19 19 20 20 21 20 17 18 14 16 17 17 17 17 16 15 16 16 15 15 12 14 15 16 16 16 17 18 18
16 16 16 16 17 17 17 17 16 16 18 18 19 19 19 19 19 19 19 20 19 17 17 15 16 18 17 16 17 16 16 15 14 15 14 14 14 13 15 15 14 16 17 18 18
16 16 16 17 17 17 18 17 17 17 17 19 19 19 19 19 19 19 19 19 18 17 16 15 18 18 17 15 15 15 16 15 15 14 15 14 15 15 16 16 16 16 16 16 17
16 16 16 17 17 17 17 17 17 17 11 16 18 19 19 19 19 19 19 19 18 17 17 17 17 17 15 16 15 15 16 15 14 14 13 13 14 15 16 16 16 15 15 16 17
16 16 16 17 17 16 17 17 17 17 10 17 19 20 19 19 19 19 18 19 17 17 16 17 17 15 15 16 15 15 14 13 14 13 13 13 12 14 14 16 15 14 16 17 17
16 16 16 16 16 16 17 17 17 9 12 17 19 19 18 19 18 18 17 18 17 15 15 15 17 17 17 16 15 14 14 12 12 11 11 14 13 12 13 13 14 15 16 16 16
16 16 16 16 16 17 17 17 11 9 17 17 18 18 17 16 16 15 14 12 12 13 11 13 15 15 16 15 14 12 10 8 10 8 10 12 12 12 14 14 14 14 16 16 16
15 16 16 16 16 16 17 11 13 14 16 17 17 18 17 16 15 14 14 12 12 12 10 11 12 14 15 15 15 14 12 7 10 7 8 11 13 13 15 16 15 17 17 15 15
16 15 16 16 16 16 16 8 10 12 16 16 16 16 14 15 16 14 13 12 12 12 12 9 12 13 15 14 15 14 10 12 8 2 5 9 12 13 13 12 15 16 14 13 12
15 16 15 16 16 16 9 11 15 16 16 15 15 15 15 14 15 13 13 13 13 12 13 12 11 12 13 14 14 14 13 10 6 7 9 10 10 11 13 12 12 11 11 11 11
15 16 15 16 16 17 7 9 15 16 16 15 15 14 14 14 14 13 13 13 14 13 13 12 10 11 12 12 12 11 9 10 10 7 8 7 9 10 11 10 11 10 11 11 11
15 12 15 16 15 9 10 15 16 15 16 15 14 14 14 14 13 13 13 14 14 14 13 11 8 7 12 11 11 13 10 10 8 9 6 4 9 12 12 11 10 10 10 10 10
15 15 16 16 7 4 13 13 14 14 13 14 14 14 13 13 12 13 13 14 14 13 13 11 7 6 10 11 11 11 11 10 6 4 7 6 8 11 12 11 10 9 10 9 9
16 7 16 15 13 12 13 13 14 15 14 15 14 14 13 11 11 12 12 12 13 13 13 12 8 8 7 10 9 9 10 10 8 5 7 8 10 11 10 9 9 9 9 9 8
15 12 12 6 10 12 12 14 13 14 15 14 12 11 13 10 10 10 11 10 12 12 11 9 9 9 8 9 9 9 9 9 8 8 7 9 8 9 8 7 8 8 8 8 8
15 14 13 11 12 12 8 13 13 13 14 13 11 11 12 11 11 11 11 10 10 11 10 8 6 8 7 8 8 8 8 8 8 8 7 7 7 9 9 8 7 8 8 7 7
14 14 15 8 8 7 7 13 13 13 13 14 12 10 9 11 12 12 12 12 12 9 7 7 3 3 5 5 4 6 6 8 8 8 8 7 7 8 7 7 8 8 7 7 7
Height
1508 1508 1509 1509 1511 1513 1514 1514 1514 1515 1516 1519 1522 1520 1522 1519 1519 1519 1520 1521 1519 1517 1514 1513 1512 1510 1509 1511 1512 1512 1530 1542 1534 1535 1529 1523 1523 1523 1523 1523 1524 1525 1524 1524 1529
1506 1506 1507 1508 1510 1512 1513 1514 1514 1516 1518 1520 1522 1522 1522 1520 1521 1521 1523 1521 1519 1517 1514 1512 1510 1510 1512 1512 1514 1514 1534 1532 1527 1529 1530 1524 1523 1523 1526 1525 1525 1525 1525 1525 1529
1504 1504 1506 1508 1509 1511 1513 1514 1515 1517 1519 1521 1524 1525 1523 1522 1522 1524 1522 1521 1519 1518 1515 1514 1511 1513 1513 1515 1517 1521 1530 1526 1527 1526 1526 1526 1525 1525 1524 1526 1524 1524 1525 1526 1529
1504 1505 1506 1507 1509 1511 1513 1514 1517 1519 1522 1524 1525 1526 1523 1522 1528 1525 1523 1522 1523 1519 1520 1514 1514 1514 1516 1520 1521 1523 1524 1523 1523 1525 1526 1524 1524 1524 1522 1521 1522 1523 1524 1525 1528
1505 1505 1506 1508 1509 1512 1514 1517 1519 1521 1524 1525 1526 1525 1525 1525 1525 1526 1523 1523 1522 1522 1521 1515 1515 1519 1521 1522 1523 1522 1525 1520 1523 1523 1525 1525 1525 1523 1521 1520 1521 1522 1523 1525 1527
1507 1508 1508 1509 1512 1515 1517 1519 1521 1523 1525 1526 1526 1526 1527 1526 1526 1524 1523 1523 1523 1520 1522 1520 1523 1524 1523 1522 1525 1523 1524 1520 1524 1523 1525 1525 1524 1525 1518 1517 1518 1519 1521 1523 1525
1508 1509 1511 1513 1515 1518 1520 1521 1523 1526 1526 1526 1528 1528 1527 1528 1526 1526 1527 1525 1524 1522 1523 1524 1525 1524 1525 1523 1524 1521 1526 1524 1522 1522 1523 1523 1526 1522 1517 1516 1515 1515 1519 1522 1523
1512 1513 1515 1517 1519 1520 1522 1523 1525 1526 1526 1528 1528 1528 1528 1529 1529 1528 1528 1527 1527 1526 1524 1524 1525 1524 1526 1525 1526 1528 1532 1541 1525 1523 1523 1525 1533 1515 1515 1514 1512 1513 1516 1518 1521
1515 1516 1518 1520 1521 1522 1523 1524 1525 1527 1529 1530 1531 1530 1530 1530 1530 1528 1527 1525 1523 1524 1525 1525 1525 1527 1528 1533 1540 1541 1548 1541 1532 1526 1526 1526 1526 1512 1511 1510 1507 1508 1512 1516 1519
1518 1519 1520 1522 1523 1524 1525 1526 1528 1530 1532 1531 1530 1532 1531 1532 1530 1529 1528 1527 1526 1525 1526 1526 1528 1533 1537 1542 1560 1548 1546 1542 1538 1530 1526 1525 1524 1513 1509 1508 1504 1507 1512 1516 1519
1520 1521 1522 1524 1525 1527 1528 1528 1533 1535 1533 1534 1534 1533 1533 1533 1532 1532 1528 1527 1527 1527 1532 1531 1539 1544 1538 1536 1537 1538 1541 1544 1536 1529 1529 1527 1525 1512 1506 1504 1504 1506 1511 1515 1518
1522 1523 1525 1527 1528 1529 1530 1531 1533 1537 1536 1535 1535 1535 1535 1535 1534 1532 1530 1531 1531 1536 1533 1538 1542 1535 1535 1536 1537 1539 1540 1542 1535 1529 1532 1527 1523 1515 1510 1511 1511 1510 1513 1515 1518
1524 1526 1527 1529 1530 1531 1531 1533 1535 1535 1536 1538 1537 1536 1536 1536 1536 1535 1534 1533 1534 1537 1537 1542 1538 1535 1536 1541 1542 1541 1540 1540 1542 1535 1529 1529 1526 1521 1516 1514 1517 1517 1518 1520 1521
1525 1527 1528 1530 1534 1532 1533 1535 1536 1536 1548 1543 1538 1538 1538 1536 1537 1536 1536 1537 1535 1539 1538 1539 1538 1538 1541 1541 1542 1546 1534 1537 1539 1542 1547 1533 1546 1528 1522 1521 1521 1522 1523 1523 1522
1524 1526 1528 1531 1532 1533 1536 1536 1536 1537 1581 1543 1539 1539 1538 1538 1540 1540 1537 1536 1539 1538 1540 1543 1540 1542 1544 1542 1539 1542 1533 1536 1535 1541 1542 1541 1548 1536 1526 1523 1523 1523 1523 1522 1522
1525 1527 1529 1532 1533 1535 1535 1536 1537 1555 1569 1543 1539 1539 1539 1539 1540 1542 1540 1538 1539 1540 1541 1543 1540 1541 1541 1540 1539 1536 1534 1537 1540 1544 1559 1543 1547 1549 1536 1529 1526 1523 1522 1523 1522
1525 1527 1530 1532 1534 1534 1535 1537 1553 1571 1543 1546 1542 1540 1542 1544 1545 1546 1549 1549 1556 1555 1561 1551 1547 1543 1542 1544 1540 1542 1547 1570 1570 1575 1569 1545 1549 1545 1531 1527 1525 1525 1525 1523 1522
1526 1527 1529 1531 1533 1534 1536 1539 1559 1551 1547 1541 1542 1541 1547 1546 1551 1551 1553 1560 1556 1557 1566 1567 1566 1548 1545 1547 1548 1547 1552 1578 1577 1588 1576 1549 1551 1542 1529 1527 1527 1526 1526 1524 1522
1528 1529 1530 1532 1533 1535 1537 1562 1562 1553 1545 1545 1545 1549 1554 1549 1550 1553 1560 1563 1561 1559 1565 1572 1561 1548 1546 1545 1546 1549 1562 1555 1575 1600 1591 1565 1546 1535 1530 1529 1529 1529 1525 1524 1523
1529 1530 1531 1533 1535 1536 1540 1553 1547 1545 1544 1545 1551 1552 1557 1556 1555 1558 1562 1562 1561 1559 1558 1563 1569 1553 1548 1545 1546 1548 1551 1567 1578 1594 1582 1565 1557 1545 1532 1532 1526 1527 1526 1526 1525
1530 1531 1534 1535 1536 1536 1554 1555 1546 1545 1545 1548 1550 1554 1556 1556 1557 1561 1565 1563 1560 1560 1559 1562 1567 1562 1552 1554 1555 1557 1564 1564 1568 1580 1579 1583 1560 1535 1535 1534 1531 1530 1529 1527 1526
1531 1534 1535 1535 1537 1543 1548 1544 1546 1547 1546 1548 1550 1553 1556 1557 1561 1562 1563 1561 1560 1560 1564 1564 1572 1579 1562 1554 1552 1553 1563 1566 1578 1577 1582 1588 1555 1530 1533 1533 1531 1530 1528 1526 1525
1533 1536 1536 1535 1550 1554 1546 1547 1548 1549 1550 1551 1554 1554 1555 1560 1565 1561 1561 1562 1562 1562 1563 1564 1577 1587 1571 1562 1555 1558 1559 1563 1572 1580 1574 1581 1556 1529 1528 1532 1532 1530 1527 1525 1522
1535 1540 1538 1537 1541 1544 1547 1549 1551 1551 1551 1553 1555 1555 1558 1563 1563 1565 1565 1564 1563 1562 1563 1564 1573 1577 1586 1573 1567 1562 1560 1559 1565 1579 1566 1555 1542 1535 1534 1533 1530 1527 1524 1522 1519
1536 1540 1541 1549 1546 1544 1546 1548 1552 1553 1553 1554 1558 1559 1559 1568 1567 1568 1567 1565 1563 1563 1564 1566 1573 1571 1570 1568 1565 1558 1556 1551 1556 1554 1559 1544 1543 1534 1532 1531 1529 1526 1522 1519 1513
1537 1539 1541 1544 1545 1546 1549 1551 1552 1554 1554 1557 1560 1561 1560 1564 1565 1567 1567 1568 1567 1565 1566 1568 1578 1571 1567 1565 1562 1557 1549 1550 1547 1545 1545 1542 1538 1528 1529 1529 1526 1522 1518 1514 1510
1537 1538 1540 1546 1547 1551 1554 1551 1552 1552 1556 1556 1558 1561 1564 1563 1563 1563 1563 1563 1562 1564 1568 1570 1578 1585 1580 1575 1571 1561 1546 1543 1541 1538 1537 1543 1532 1528 1527 1525 1521 1515 1513 1508 1504
Wind_Speed
9 8 9 7 8 6 8 9 11 9 11 10 9 9 5 6 7 6 9 10 14 18 18 13 7 5 6 4 4 4 5 3 1 1 4 4 2 6 8 8 2 0 3 7 22
6 7 6 6 7 8 10 12 10 11 11 12 10 7 5 6 10 12 11 16 18 19 17 18 11 11 5 7 5 7 5 6 2 3 3 3 4 2 4 6 4 6 6 18 23
2 4 5 6 8 10 13 12 13 11 13 10 7 7 3 3 10 12 16 19 20 15 17 19 9 9 8 8 6 2 4 4 4 5 4 2 1 1 7 2 9 13 16 23 22
2 5 6 9 11 14 14 14 11 13 11 8 7 9 8 2 4 11 14 14 17 15 14 16 20 8 5 5 6 6 1 4 2 4 3 2 1 1 2 4 9 12 12 21 20
6 8 11 13 16 15 15 12 11 10 9 7 7 7 7 10 7 10 10 11 11 13 15 18 23 8 5 3 3 4 2 2 3 2 3 2 5 4 8 6 11 13 19 19 17
11 15 17 18 17 16 13 11 10 10 7 6 6 4 4 6 10 12 9 10 8 13 17 17 11 7 4 3 2 2 4 7 5 9 5 2 4 3 5 9 15 19 23 19 17
15 18 18 17 15 13 13 12 11 8 7 6 6 5 6 5 8 10 12 7 8 11 11 12 13 12 8 4 7 3 5 6 3 6 5 3 5 6 7 4 18 21 23 23 20
17 17 17 16 15 14 14 14 13 11 7 5 7 5 4 6 6 6 9 5 6 7 9 9 11 9 5 4 5 5 5 6 7 1 3 3 9 12 4 9 16 23 25 24 21
16 16 15 14 13 13 13 12 11 8 4 3 4 5 2 4 7 9 12 16 6 5 8 6 6 4 4 4 5 7 1 3 5 7 4 3 8 14 13 16 18 20 26 23 18
14 15 15 14 12 11 9 9 9 7 4 3 5 3 5 7 8 11 16 9 7 13 6 6 3 4 5 6 1 3 3 4 3 6 7 5 9 11 14 12 15 12 17 16 13
12 13 13 13 12 11 7 10 5 4 9 5 5 4 4 6 6 11 16 6 7 6 5 5 6 2 2 1 4 1 2 2 4 3 7 5 9 12 16 1 4 8 16 15 13
11 12 12 11 10 9 9 7 6 4 4 5 7 4 6 7 6 15 13 4 6 3 3 6 2 1 4 5 4 2 2 4 5 5 3 7 9 8 9 5 4 21 21 18 14
10 10 11 10 8 7 8 9 7 3 3 2 3 4 4 5 4 9 14 4 4 4 4 5 1 4 3 5 6 4 2 3 5 7 1 6 6 6 5 9 9 13 14 14 14
10 10 10 7 6 7 10 7 3 1 5 6 4 3 5 3 5 10 9 4 6 2 1 1 2 3 5 3 1 4 2 2 6 4 2 4 3 5 4 2 3 4 8 11 11
11 11 10 8 6 6 6 3 3 0 5 4 1 1 4 2 3 10 9 1 2 3 5 2 3 6 6 4 2 6 7 4 2 3 2 8 4 6 5 2 0 3 8 7 4
10 12 10 8 7 5 4 1 1 6 0 2 1 1 3 5 5 9 17 5 5 4 5 4 3 3 2 3 4 8 4 5 4 2 2 1 2 6 4 4 1 4 8 7 6
7 10 11 10 6 4 4 2 5 6 2 1 1 3 3 4 6 5 5 11 5 5 6 6 4 5 4 5 6 8 6 4 5 5 4 1 2 6 4 4 2 2 2 4 3
8 7 8 8 7 6 4 5 6 3 1 3 3 3 4 5 5 6 3 5 6 5 3 4 6 5 6 1 2 3 3 4 3 1 5 6 3 4 1 4 8 6 5 4 4
8 9 7 7 7 5 2 5 6 6 2 2 3 4 5 5 3 4 4 3 3 5 3 4 4 4 1 3 1 3 4 2 6 2 3 4 5 5 5 6 8 7 15 3 2
8 12 10 7 6 2 5 2 1 1 1 2 3 1 2 5 4 4 3 3 3 7 2 3 4 2 6 3 6 5 2 4 4 3 3 5 6 5 4 8 14 10 7 8 8
4 4 6 5 2 3 4 4 2 4 2 3 2 3 2 1 3 2 0 2 2 3 8 2 2 6 3 5 1 5 4 5 3 3 2 3 6 5 6 7 11 7 9 6 3
3 4 3 2 4 3 2 2 2 5 8 6 4 3 3 3 4 3 2 2 1 1 2 2 3 3 3 7 4 4 5 4 3 4 3 2 7 3 2 10 7 4 10 12 10
4 4 7 2 3 2 1 4 5 4 5 3 3 3 4 2 3 2 2 3 3 3 1 2 2 3 7 6 4 3 3 3 4 3 6 3 5 3 22 11 3 8 12 14 16
3 3 6 6 6 5 4 2 3 5 4 6 4 6 4 5 6 2 5 5 8 3 1 2 2 6 5 6 5 10 5 3 5 3 4 11 18 16 10 4 11 18 18 19 24
3 2 2 1 5 4 3 2 3 2 3 7 6 4 3 2 3 2 3 5 5 3 3 3 2 3 6 7 6 14 13 16 9 11 6 9 10 13 6 5 12 18 20 23 27
3 4 4 4 2 3 5 1 4 2 2 2 6 1 4 3 4 2 1 1 4 3 3 2 3 3 4 6 10 15 14 11 14 11 8 10 10 6 4 9 14 21 24 24 25
7 8 4 3 3 4 2 1 2 5 5 5 10 4 2 4 4 5 8 8 9 4 4 2 4 2 5 6 9 7 7 4 3 5 5 5 7 2 6 15 20 25 28 25 31
Wind_Direction
260 256 251 245 238 219 206 188 168 156 146 135 113 86 72 88 76 74 46 32 16 10 15 18 22 352 55 59 100 113 64 75 137 137 274 348 77 52 72 125 101 80 121 138 161
251 246 239 230 219 195 186 173 167 153 144 124 100 62 53 89 90 76 48 26 11 3 18 24 46 81 71 68 61 76 91 196 205 185 224 2 63 52 83 113 103 142 146 154 170
249 235 219 202 184 174 166 160 154 147 134 121 80 42 45 112 84 41 35 34 24 33 32 33 74 78 62 58 25 96 141 184 219 223 187 166 41 85 133 89 173 177 169 170 181
166 182 172 162 156 150 151 150 155 147 140 114 61 40 56 116 101 39 35 28 31 37 27 46 64 61 67 45 28 75 187 196 180 178 182 191 183 231 202 209 201 204 197 179 185
123 127 134 134 131 135 140 150 154 143 124 94 44 46 79 90 63 44 37 28 28 28 32 34 39 30 50 16 49 78 279 264 307 263 271 292 279 269 251 233 208 197 192 191 192
119 122 119 116 122 130 138 148 138 123 113 74 49 40 97 74 51 25 21 36 9 43 40 39 26 28 62 48 98 331 311 302 294 261 267 224 270 287 254 234 209 202 199 198 199
110 111 113 116 118 131 138 133 124 127 116 95 51 58 74 72 38 27 6 4 19 22 15 20 8 10 349 10 351 6 353 333 275 248 233 202 310 237 267 289 216 206 203 205 209
113 113 111 114 121 121 118 120 130 127 118 61 29 51 83 70 31 12 359 343 324 326 351 351 343 355 13 323 17 43 45 5 318 96 23 124 260 272 277 299 241 216 197 199 205
114 111 111 111 109 107 110 117 120 111 90 26 16 33 57 41 47 9 354 341 349 19 339 317 356 24 23 55 17 16 356 317 321 55 10 200 268 260 295 291 254 227 208 207 218
113 110 111 109 103 92 96 107 98 88 46 6 28 84 41 11 14 4 350 359 352 347 37 42 58 59 30 49 239 286 347 322 272 312 348 301 269 279 294 283 258 237 204 214 236
117 116 115 110 102 88 85 104 108 83 59 45 44 68 34 4 352 347 349 354 7 40 23 14 64 64 332 273 233 215 202 262 271 296 352 289 285 290 313 163 132 163 178 148 133
120 119 118 117 112 82 112 87 95 106 68 62 44 72 54 25 22 21 9 46 45 34 357 26 72 286 108 46 55 5 324 307 293 288 359 327 306 336 36 35 86 138 139 135 129
132 130 131 131 111 83 108 108 103 56 92 44 6 30 30 18 350 353 13 32 53 40 8 131 231 59 82 35 21 317 208 274 256 323 271 334 333 1 16 74 115 138 135 132 130
158 149 146 146 136 104 106 118 73 39 74 307 357 25 24 349 11 2 359 22 25 65 76 83 12 69 61 40 72 317 217 282 297 20 262 42 286 15 339 79 85 74 135 145 139
175 170 166 160 146 124 136 127 17 265 66 273 324 52 358 64 350 11 15 21 70 316 79 272 33 49 52 318 338 256 310 275 232 190 68 347 65 293 334 330 144 104 142 146 167
173 181 178 170 155 160 163 169 353 48 20 356 69 19 56 19 41 43 36 64 53 63 25 5 38 57 308 339 329 296 0 40 53 88 33 132 114 316 329 283 8 193 177 183 172
138 170 186 187 191 196 189 194 43 97 278 2 64 68 86 13 36 51 42 38 39 29 7 343 359 328 26 10 353 15 33 3 7 8 225 356 52 230 291 291 242 174 194 223 238
110 140 171 183 189 174 171 54 76 267 3 2 32 53 74 30 10 20 58 29 10 51 60 46 336 11 337 69 266 344 80 132 194 312 286 332 150 236 219 19 37 100 314 260 275
107 108 118 166 163 155 159 59 185 206 285 41 53 72 359 3 114 75 62 45 36 9 68 21 289 324 247 311 73 333 34 176 101 17 28 290 301 281 213 45 66 288 297 281 49
105 83 77 121 146 145 76 162 103 270 12 75 109 52 114 348 54 73 33 320 357 32 117 356 318 346 296 24 34 88 136 32 16 46 306 302 283 237 310 342 356 338 88 79 57
89 86 66 106 92 73 118 215 99 40 71 55 83 80 70 94 51 76 128 302 340 20 63 65 103 294 342 19 310 2 26 42 110 129 221 297 260 223 352 6 317 79 54 27 3
72 64 51 58 61 38 103 90 73 12 56 62 83 85 91 43 42 81 129 196 222 359 49 351 134 306 265 284 275 121 147 113 124 273 235 175 265 331 206 21 107 60 13 4 348
79 82 36 83 109 339 350 61 70 43 33 57 60 63 58 76 90 68 130 39 41 359 132 173 1 2 349 341 2 103 151 126 96 74 208 213 263 252 337 347 20 345 342 335 329
100 46 46 68 85 120 114 84 101 59 63 71 57 71 74 38 20 79 33 9 15 3 69 64 135 164 205 234 254 290 227 246 175 187 237 242 276 288 300 285 322 334 328 320 315
70 83 100 300 13 97 86 84 110 95 74 46 35 52 120 94 37 66 20 336 342 57 80 90 234 235 234 256 266 271 278 289 261 242 225 276 276 281 245 275 306 307 314 301 311
126 143 110 87 100 87 11 35 140 104 72 28 121 71 77 134 164 211 167 226 241 5 85 28 272 320 296 259 265 277 275 257 268 284 252 260 274 275 268 296 294 305 307 304 314
133 130 141 5 61 74 237 167 122 117 37 140 147 118 96 181 198 250 247 244 245 195 171 197 147 106 266 349 321 306 237 212 242 234 207 246 248 267 294 294 291 303 310 309 325